[[{"header":{"parameterUnit":"m.s-1","parameterCategory":1,"la1":30.2991,"la2":30.254,"lo1":-89.0895,"lo2":-89.0444,"dy":0.0017,"dx":0.0017,"nx":28,"ny":28,"refTime":"2025-03-25T09:00:00:Z","depth":0,"parameterNumber":2,"parameterNumberName":"U-component_of_WINDS"},"data":[0,0,0,0,0,0,0,0,0,0,0,0,0,0,0,0,0,0,0,0,0,0,0,0,0,0,0,0,0,0,0,0,0,0,0,0,0,0,0,0,0,0,0,0,0,0,0,0,0,0,0,0,0,0,0,0,0,0,0.3873,0.3874,0,0.3963,0.3964,0.3965,0.3998,0.3997,0.3997,0.3997,0.4092,0.4094,0.4097,0,0,0,0,0,0,0,0,0,0,0,0,0,0.3733,0.3735,0.3873,0.3874,0.3875,0.3963,0.3964,0.3965,0.3998,0.3997,0.3997,0.3997,0.4091,0.4094,0.4097,0,0,0,0,0,0,0,0,0,0,0,0,0,0.3805,0.3736,0.3872,0.3902,0.3905,0.3962,0.3964,0.3966,0.3998,0.3997,0.3997,0.3997,0.409,0.4094,0.4098,0.4133,0,0,0.4111,0.4113,0,0,0,0,0,0,0,0,0.3801,0.381,0.3896,0.39,0.3904,0.3969,0.3949,0.4022,0.3998,0.3963,0.3997,0.3996,0.4051,0.4059,0.4077,0.4138,0.4142,0.4111,0.4114,0.4116,0.4117,0,0,0,0,0,0,0,0.3796,0.3807,0.3908,0.3898,0.3902,0.3912,0.3921,0.3963,0.4009,0.3966,0.3968,0.3979,0.4053,0.4072,0.4079,0.4143,0.4111,0.4115,0.4117,0.4119,0.424,0.4241,0,0,0,0,0,0,0.3786,0.3802,0.3906,0.3911,0.385,0.3914,0.3925,0.3948,0.4008,0.4017,0.3979,0.398,0.4065,0.4074,0.4082,0.4129,0.4115,0.4119,0.4122,0.424,0.4241,0.4241,0,0,0,0,0,0,0.3782,0.3794,0.3902,0.3857,0.3872,0.3917,0.3943,0.395,0.397,0.4018,0.4027,0.399,0.4065,0.4077,0.4121,0.4133,0.4121,0.4125,0.4239,0.424,0.4241,0.4222,0,0,0,0,0,0,0.3778,0.3793,0.3806,0.3857,0.3874,0.3937,0.3944,0.3952,0.3976,0.3978,0.4031,0.4039,0.4066,0.4114,0.4125,0.4139,0.4128,0.4238,0.4239,0.4241,0.4222,0.4222,0.4223,0,0,0,0,0,0.3773,0.3797,0.3806,0.3819,0.3891,0.3938,0.3948,0.3977,0.3977,0.3991,0.4023,0.4037,0.413,0.4119,0.4131,0.4146,0.4237,0.4239,0.4241,0.4222,0.4222,0.4223,0,0,0,0,0,0,0.3746,0.3804,0.3815,0.3856,0.3892,0.3943,0.3962,0.3977,0.4014,0.4014,0.4051,0.4062,0.4104,0.413,0.4116,0.4185,0.4185,0.4189,0.4166,0.4167,0.4168,0.4161,0.4132,0,0,0,0,0,0.3745,0.3777,0.3827,0.3858,0.3876,0.3916,0.3937,0.3957,0.3996,0.4011,0.4046,0.4084,0.4122,0.4146,0.4183,0.4226,0.4239,0.4243,0.4243,0.4243,0.4246,0.4272,0.4275,0.4247,0.4246,0.4246,0,0,0.3743,0.3779,0.3797,0.3854,0.3884,0.3918,0.3928,0.3963,0.3989,0.4017,0.4061,0.4088,0.4133,0.4177,0.4198,0.4199,0.4257,0.4245,0.4245,0.4248,0.4274,0.4277,0.4279,0.4248,0.4247,0.4247,0,0,0.3757,0.3786,0.3817,0.3847,0.3892,0.3919,0.3926,0.3976,0.3994,0.4039,0.4061,0.4093,0.4157,0.4189,0.4213,0.4241,0.4256,0.4252,0.4255,0.428,0.4282,0.4284,0.4295,0.4299,0.4255,0.4255,0.4255,0,0.3748,0.3799,0.383,0.3865,0.389,0.3917,0.3949,0.3977,0.4032,0.4049,0.405,0.4132,0.4164,0.4217,0.4223,0.4242,0.4253,0.4246,0.4279,0.4282,0.4284,0.4295,0.4299,0.4255,0.4255,0.4255,0.4255,0,0.3788,0.3823,0.3843,0.3895,0.3923,0.3955,0.3993,0.4017,0.4036,0.4063,0.4109,0.4148,0.4195,0.4209,0.4227,0.4265,0.4265,0.4272,0.4273,0.4286,0.4297,0.4301,0.4253,0.4254,0.4254,0.4254,0,0,0.3786,0.3856,0.3863,0.3888,0.394,0.3969,0.4004,0.4049,0.407,0.4108,0.4139,0.4194,0.4201,0.4229,0.4251,0.4273,0.4295,0.4278,0.428,0.4281,0.434,0.4334,0.4339,0.4305,0.4306,0.4307,0.4337,0,0.3807,0.387,0.39,0.395,0.3984,0.4011,0.4042,0.4078,0.4105,0.4139,0.4169,0.4207,0.4214,0.4231,0.4254,0.4287,0.4307,0.4285,0.4336,0.4337,0.4324,0.4344,0.4338,0.4364,0.4341,0.4342,0.4342,0,0.3839,0.3877,0.393,0.3981,0.3996,0.4023,0.4068,0.4099,0.4142,0.4161,0.4192,0.4214,0.4254,0.4252,0.4309,0.4293,0.4316,0.4336,0.4337,0.4343,0.434,0.4351,0.4373,0.4377,0.4349,0.4349,0.4348,0,0.3834,0.3898,0.3938,0.3959,0.4018,0.4037,0.4063,0.4105,0.4131,0.4171,0.4188,0.4232,0.4256,0.4291,0.4325,0.432,0.4378,0.4379,0.4395,0.4395,0.4406,0.4405,0.4432,0.442,0.442,0.442,0.442,0,0.3854,0.3886,0.3937,0.3962,0.3999,0.4034,0.407,0.4098,0.4136,0.4168,0.4195,0.4224,0.4267,0.4303,0.433,0.4373,0.4384,0.4401,0.4408,0.4399,0.4396,0.4414,0.4413,0.4421,0.4421,0.4421,0.4421,0,0.3854,0.3889,0.3935,0.3988,0.4002,0.4027,0.4073,0.4099,0.4128,0.4168,0.418,0.4226,0.4269,0.4307,0.4364,0.4383,0.4428,0.4436,0.4413,0.4416,0.4431,0.4429,0.4471,0.4479,0.4461,0.4461,0.4461,0,0.3864,0.3889,0.3945,0.3968,0.3994,0.403,0.4057,0.4093,0.412,0.4172,0.4193,0.4238,0.4276,0.4345,0.4384,0.4429,0.4439,0.445,0.4445,0.4436,0.444,0.4438,0.4441,0.445,0.445,0.445,0.445,0,0.388,0.3896,0.3933,0.3977,0.4008,0.4044,0.4081,0.4099,0.4142,0.4172,0.4216,0.4246,0.4305,0.4351,0.44,0.4429,0.4447,0.4452,0.4458,0.4449,0.4435,0.4444,0.4414,0.445,0.445,0.445,0.445,0.445,0.3886,0.391,0.3953,0.3994,0.4026,0.406,0.4088,0.412,0.4158,0.4208,0.4228,0.4274,0.4319,0.4387,0.4416,0.4453,0.4456,0.4465,0.4467,0.4469,0.4468,0.4429,0.4462,0.4462,0.4463,0.4463,0.4463,0,0.3903,0.3933,0.397,0.4021,0.4054,0.4068,0.411,0.4137,0.4177,0.4217,0.4254,0.4306,0.4351,0.4394,0.4442,0.4464,0.4474,0.4475,0.4474,0.448,0.4462,0.4452,0.4466,0.4466,0.4466,0.4466,0.4466,0.4466,0.3916,0.3958,0.398,0.4039,0.4069,0.4114,0.4137,0.417,0.4201,0.4259,0.4296,0.4323,0.4365,0.4416,0.4458,0.447,0.4487,0.4486,0.45,0.4482,0.4481,0.448,0.4471,0.4489,0.4489,0.4515,0.4515,0.4515]},{"header":{"parameterUnit":"m.s-1","parameterCategory":1,"la1":30.2991,"la2":30.254,"lo1":-89.0895,"lo2":-89.0444,"dy":0.0017,"dx":0.0017,"nx":28,"ny":28,"refTime":"2025-03-25T09:00:00:Z","depth":0,"parameterNumber":3,"parameterNumberName":"V-component_of_WINDS"},"data":[0,0,0,0,0,0,0,0,0,0,0,0,0,0,0,0,0,0,0,0,0,0,0,0,0,0,0,0,0,0,0,0,0,0,0,0,0,0,0,0,0,0,0,0,0,0,0,0,0,0,0,0,0,0,0,0,0,0,-1.3281,-1.3281,0,-1.3271,-1.3271,-1.3271,-1.3263,-1.3262,-1.3262,-1.3262,-1.3252,-1.3252,-1.3251,0,0,0,0,0,0,0,0,0,0,0,0,0,-1.3292,-1.3292,-1.3281,-1.3281,-1.3281,-1.3271,-1.3271,-1.3271,-1.3263,-1.3262,-1.3262,-1.3262,-1.3252,-1.3252,-1.3251,0,0,0,0,0,0,0,0,0,0,0,0,0,-1.3285,-1.3292,-1.3281,-1.3276,-1.3275,-1.3271,-1.3271,-1.3271,-1.3263,-1.3262,-1.3262,-1.3262,-1.3252,-1.3252,-1.3251,-1.3252,0,0,-1.3251,-1.325,0,0,0,0,0,0,0,0,-1.3286,-1.3285,-1.3276,-1.3276,-1.3275,-1.3268,-1.3271,-1.3265,-1.3263,-1.3267,-1.3262,-1.3262,-1.3257,-1.3257,-1.3255,-1.3252,-1.3251,-1.3251,-1.325,-1.325,-1.325,0,0,0,0,0,0,0,-1.3286,-1.3285,-1.3277,-1.3276,-1.3276,-1.3273,-1.3272,-1.327,-1.3263,-1.3267,-1.3266,-1.3265,-1.3257,-1.3255,-1.3255,-1.3251,-1.3251,-1.325,-1.325,-1.325,-1.3248,-1.3248,0,0,0,0,0,0,-1.3288,-1.3286,-1.3277,-1.3277,-1.328,-1.3273,-1.3272,-1.327,-1.3263,-1.3262,-1.3265,-1.3265,-1.3256,-1.3255,-1.3254,-1.3254,-1.325,-1.325,-1.325,-1.3248,-1.3248,-1.3248,0,0,0,0,0,0,-1.3288,-1.3287,-1.3278,-1.3281,-1.328,-1.3273,-1.3272,-1.327,-1.3269,-1.3262,-1.3261,-1.3265,-1.3256,-1.3255,-1.3253,-1.3254,-1.325,-1.325,-1.3247,-1.3248,-1.3248,-1.3255,0,0,0,0,0,0,-1.3288,-1.3287,-1.3288,-1.3281,-1.328,-1.3277,-1.3272,-1.327,-1.3268,-1.3267,-1.3261,-1.326,-1.3256,-1.3253,-1.3252,-1.3254,-1.3249,-1.3247,-1.3248,-1.3248,-1.3255,-1.3256,-1.3256,0,0,0,0,0,-1.3289,-1.329,-1.3288,-1.3287,-1.328,-1.3277,-1.3276,-1.3271,-1.3268,-1.3269,-1.3264,-1.326,-1.3254,-1.3253,-1.3252,-1.3253,-1.3247,-1.3247,-1.3248,-1.3254,-1.3255,-1.3256,0,0,0,0,0,0,-1.3297,-1.3289,-1.3286,-1.3286,-1.3282,-1.3275,-1.3276,-1.3272,-1.3269,-1.3268,-1.3262,-1.326,-1.3259,-1.3256,-1.3255,-1.3253,-1.325,-1.325,-1.3255,-1.3256,-1.3257,-1.3258,-1.3249,0,0,0,0,0,-1.3298,-1.3297,-1.329,-1.329,-1.3288,-1.3282,-1.3281,-1.3277,-1.3273,-1.3271,-1.3267,-1.3263,-1.326,-1.3258,-1.3255,-1.3254,-1.3253,-1.3254,-1.3255,-1.3256,-1.3256,-1.3255,-1.3255,-1.3249,-1.3249,-1.3249,0,0,-1.3302,-1.3298,-1.3297,-1.3292,-1.3288,-1.3286,-1.3281,-1.3279,-1.3277,-1.3271,-1.3269,-1.3265,-1.326,-1.3259,-1.3258,-1.3256,-1.3257,-1.3256,-1.3257,-1.3256,-1.3255,-1.3256,-1.3256,-1.3249,-1.3249,-1.3249,0,0,-1.3307,-1.3304,-1.3303,-1.33,-1.3295,-1.3291,-1.3291,-1.3285,-1.3282,-1.328,-1.3275,-1.3272,-1.3268,-1.3264,-1.3262,-1.3265,-1.3261,-1.3265,-1.3268,-1.3267,-1.3268,-1.3268,-1.3269,-1.327,-1.3265,-1.3265,-1.3265,0,-1.3312,-1.3309,-1.3304,-1.3302,-1.33,-1.3293,-1.3293,-1.329,-1.3284,-1.3282,-1.328,-1.3274,-1.327,-1.3268,-1.3268,-1.3267,-1.3266,-1.3265,-1.3268,-1.3269,-1.3269,-1.327,-1.327,-1.3265,-1.3265,-1.3265,-1.3265,0,-1.3315,-1.3313,-1.3313,-1.3308,-1.3305,-1.3304,-1.3298,-1.3297,-1.3293,-1.3289,-1.3287,-1.3282,-1.3277,-1.3277,-1.3273,-1.3274,-1.3272,-1.327,-1.3266,-1.327,-1.3271,-1.3271,-1.3266,-1.3265,-1.3265,-1.3265,0,0,-1.3325,-1.3317,-1.3317,-1.3314,-1.3308,-1.3306,-1.3304,-1.33,-1.3299,-1.3295,-1.3293,-1.3289,-1.3286,-1.3283,-1.3279,-1.3278,-1.3281,-1.3275,-1.3275,-1.3276,-1.3281,-1.3283,-1.3283,-1.3278,-1.3278,-1.3278,-1.3281,0,-1.3329,-1.3326,-1.3321,-1.332,-1.3317,-1.3311,-1.331,-1.3306,-1.3302,-1.3299,-1.3295,-1.3292,-1.3288,-1.3287,-1.3286,-1.3281,-1.3282,-1.3281,-1.3276,-1.3276,-1.3278,-1.3283,-1.3286,-1.3288,-1.3281,-1.3281,-1.3281,0,-1.3334,-1.333,-1.3328,-1.3322,-1.3321,-1.332,-1.3315,-1.3313,-1.3308,-1.3305,-1.3302,-1.3297,-1.3295,-1.3292,-1.3288,-1.3288,-1.3286,-1.3283,-1.3283,-1.3282,-1.3279,-1.3283,-1.3289,-1.3289,-1.3282,-1.3281,-1.3281,0,-1.3341,-1.3336,-1.3334,-1.3332,-1.3324,-1.3323,-1.332,-1.3315,-1.3313,-1.3309,-1.3307,-1.3303,-1.3301,-1.3297,-1.3292,-1.329,-1.3288,-1.3285,-1.3286,-1.3286,-1.3286,-1.3286,-1.3292,-1.3285,-1.3285,-1.3285,-1.3285,0,-1.3346,-1.3345,-1.3337,-1.3336,-1.3334,-1.3328,-1.3327,-1.3323,-1.3319,-1.3316,-1.3311,-1.3309,-1.3302,-1.3299,-1.3294,-1.3292,-1.3291,-1.3288,-1.3287,-1.3289,-1.3289,-1.3287,-1.3287,-1.3285,-1.3285,-1.3285,-1.3285,0,-1.3353,-1.3348,-1.3346,-1.3339,-1.3337,-1.3336,-1.333,-1.3329,-1.3325,-1.3322,-1.3321,-1.3314,-1.331,-1.3304,-1.3299,-1.3296,-1.3294,-1.3292,-1.3295,-1.3295,-1.3296,-1.3295,-1.33,-1.33,-1.3294,-1.3294,-1.3294,0,-1.3357,-1.3356,-1.3349,-1.3347,-1.3344,-1.3341,-1.3339,-1.3333,-1.333,-1.3325,-1.3324,-1.3319,-1.3316,-1.331,-1.3304,-1.33,-1.3297,-1.3299,-1.3297,-1.3298,-1.3297,-1.3297,-1.3297,-1.33,-1.33,-1.33,-1.33,0,-1.3363,-1.3361,-1.3357,-1.3353,-1.335,-1.3347,-1.3343,-1.3342,-1.3335,-1.3332,-1.3328,-1.3325,-1.3319,-1.3315,-1.331,-1.3306,-1.3302,-1.3301,-1.3301,-1.3303,-1.3305,-1.3303,-1.3297,-1.3301,-1.3301,-1.3301,-1.3301,-1.3301,-1.3369,-1.3368,-1.3362,-1.3359,-1.3355,-1.3352,-1.335,-1.3345,-1.3342,-1.3337,-1.3333,-1.3329,-1.3324,-1.3316,-1.3313,-1.331,-1.3308,-1.3308,-1.3308,-1.3308,-1.3308,-1.3305,-1.3309,-1.3309,-1.3309,-1.3309,-1.3309,0,-1.3375,-1.3371,-1.3368,-1.3362,-1.336,-1.3356,-1.3351,-1.3349,-1.3346,-1.3341,-1.3338,-1.3333,-1.3329,-1.3323,-1.3318,-1.3316,-1.3314,-1.3315,-1.3315,-1.3314,-1.331,-1.3311,-1.3317,-1.3317,-1.3317,-1.3317,-1.3317,-1.3317,-1.3377,-1.3375,-1.3372,-1.3367,-1.3364,-1.336,-1.3358,-1.3354,-1.335,-1.3345,-1.3342,-1.3338,-1.3332,-1.3327,-1.3323,-1.3321,-1.3319,-1.3321,-1.3319,-1.3315,-1.3314,-1.3314,-1.3314,-1.3321,-1.3321,-1.3323,-1.3323,-1.3323]}]]